When you browse on this site, cookies collect data to enhance your experience and personalize the content and advertising you see.
Visit our Privacy Policy to learn more. By continuing to use the site, you agree to this use of cookies and data.
  • In Czech Republic
  • List of Countries
  • For 7 days
  • Water Temperature
  • Satellite Maps
  • Weather Map
  • Weather Widgets
  • user-avatar
    Login

    Hourly Weather Gasierzyno

    Today, 11 December, Tuesday

    Time Temperature Precipitation Wind Pressure Humidity
    00:00 +2°C° 0.4 mm 7 mps 754 mmHg 77%
    01:00 +2°C° 0 mm 6 mps 754 mmHg 79%
    02:00 +2°C° 0.7 mm 6 mps 755 mmHg 79%
    03:00 +2°C° 0.7 mm 6 mps 755 mmHg 79%
    04:00 +3°C° 0.7 mm 7 mps 755 mmHg 79%
    05:00 +2°C° 0.3 mm 6 mps 755 mmHg 79%
    06:00 +2°C° 0.3 mm 6 mps 756 mmHg 79%
    07:00 +2°C° 0 mm 5 mps 756 mmHg 79%
    08:00 +2°C° 0.1 mm 5 mps 757 mmHg 78%
    09:00 +2°C° 0.1 mm 5 mps 757 mmHg 77%
    10:00 +2°C° 0.1 mm 6 mps 758 mmHg 76%
    11:00 +2°C° 0.1 mm 6 mps 759 mmHg 76%
    12:00 +2°C° 0.1 mm 5 mps 759 mmHg 76%
    13:00 +3°C° 0.1 mm 5 mps 760 mmHg 75%
    14:00 +3°C° 0.2 mm 5 mps 760 mmHg 78%
    15:00 +2°C° 0.2 mm 5 mps 760 mmHg 80%
    16:00 +3°C° 0.2 mm 4 mps 761 mmHg 82%
    17:00 +3°C° 0.1 mm 4 mps 761 mmHg 82%
    18:00 +3°C° 0.1 mm 4 mps 761 mmHg 83%
    19:00 +2°C° 0.1 mm 5 mps 762 mmHg 83%
    20:00 +2°C° 0.1 mm 5 mps 762 mmHg 84%
    21:00 +2°C° 0.1 mm 5 mps 763 mmHg 85%
    22:00 +2°C° 0.1 mm 5 mps 763 mmHg 86%
    23:00 +1°C° 0 mm 4 mps 764 mmHg 87%

    Tomorrow, 12 December, Wednesday

    Time Temperature Precipitation Wind Pressure Humidity
    00:00 +1°C° 0 mm 4 mps 764 mmHg 87%
    01:00 +1°C° 0 mm 4 mps 765 mmHg 88%
    02:00 +2°C° 0 mm 3 mps 765 mmHg 87%
    03:00 +1°C° 0 mm 3 mps 766 mmHg 87%
    04:00 +2°C° 0 mm 2 mps 766 mmHg 86%
    05:00 +2°C° 0 mm 2 mps 767 mmHg 86%
    06:00 +2°C° 0 mm 2 mps 767 mmHg 86%
    07:00 +2°C° 0 mm 2 mps 767 mmHg 87%
    08:00 +2°C° 0.1 mm 2 mps 768 mmHg 85%
    09:00 +3°C° 0.1 mm 2 mps 768 mmHg 84%
    10:00 +4°C° 0.1 mm 1 mps 768 mmHg 82%
    11:00 +3°C° 0.1 mm 2 mps 769 mmHg 81%
    12:00 +4°C° 0.1 mm 2 mps 769 mmHg 80%
    13:00 +4°C° 0.1 mm 2 mps 769 mmHg 79%
    14:00 +3°C° 0.1 mm 3 mps 769 mmHg 81%
    15:00 +3°C° 0.1 mm 3 mps 769 mmHg 83%
    16:00 +2°C° 0.1 mm 3 mps 769 mmHg 86%
    17:00 +2°C° 0.1 mm 3 mps 769 mmHg 86%
    18:00 +2°C° 0.1 mm 3 mps 769 mmHg 86%
    19:00 +2°C° 0.1 mm 3 mps 769 mmHg 87%
    20:00 +1°C° 0.1 mm 3 mps 770 mmHg 87%
    21:00 +1°C° 0.1 mm 3 mps 770 mmHg 88%
    22:00 +1°C° 0.1 mm 3 mps 770 mmHg 89%
    23:00 +1°C° 0 mm 3 mps 770 mmHg 89%

    Day after tomorrow, 13 December, Thursday

    Time Temperature Precipitation Wind Pressure Humidity
    00:00 +1°C° 0 mm 2 mps 770 mmHg 89%
    01:00 +1°C° 0 mm 2 mps 770 mmHg 90%
    02:00 +1°C° 0 mm 2 mps 770 mmHg 90%
    03:00 +1°C° 0 mm 2 mps 770 mmHg 90%
    04:00 +1°C° 0 mm 2 mps 769 mmHg 90%
    05:00 +1°C° 0 mm 2 mps 769 mmHg 90%
    06:00 +1°C° 0 mm 2 mps 769 mmHg 90%
    07:00 +1°C° 0 mm 2 mps 769 mmHg 90%
    08:00 +1°C° 0 mm 2 mps 769 mmHg 89%
    09:00 +1°C° 0 mm 2 mps 769 mmHg 87%
    10:00 +2°C° 0 mm 2 mps 769 mmHg 85%
    11:00 +2°C° 0.1 mm 2 mps 769 mmHg 82%
    12:00 +2°C° 0.1 mm 2 mps 769 mmHg 79%
    13:00 +3°C° 0.1 mm 2 mps 769 mmHg 77%
    14:00 +2°C° 0.1 mm 2 mps 769 mmHg 80%
    15:00 +2°C° 0.1 mm 2 mps 769 mmHg 82%
    16:00 +1°C° 0.1 mm 2 mps 769 mmHg 85%
    17:00 +1°C° 0 mm 2 mps 769 mmHg 86%
    18:00 +1°C° 0 mm 2 mps 769 mmHg 86%
    19:00 +1°C° 0 mm 2 mps 769 mmHg 87%
    20:00 +1°C° 0 mm 2 mps 769 mmHg 87%
    21:00 -1°C° 0 mm 2 mps 769 mmHg 87%
    22:00 -1°C° 0 mm 2 mps 769 mmHg 87%
    23:00 +1°C° 0 mm 1 mps 769 mmHg 87%

    14 December, Friday

    Time Temperature Precipitation Wind Pressure Humidity
    00:00 +1°C° 0 mm 1 mps 769 mmHg 87%
    01:00 +1°C° 0 mm 1 mps 770 mmHg 86%
    02:00 +1°C° 0 mm 1 mps 770 mmHg 87%
    03:00 +1°C° 0 mm 1 mps 770 mmHg 87%
    04:00 0°C° 0 mm 1 mps 770 mmHg 87%
    05:00 0°C° 0 mm 1 mps 770 mmHg 88%
    06:00 -2°C° 0 mm 2 mps 770 mmHg 88%
    07:00 -2°C° 0 mm 2 mps 770 mmHg 88%
    08:00 -2°C° 0 mm 2 mps 770 mmHg 85%
    09:00 -1°C° 0 mm 2 mps 770 mmHg 82%
    10:00 -1°C° 0 mm 2 mps 771 mmHg 79%
    11:00 -1°C° 0 mm 3 mps 771 mmHg 76%
    12:00 0°C° 0 mm 3 mps 771 mmHg 73%
    13:00 0°C° 0 mm 3 mps 771 mmHg 70%
    14:00 -1°C° 0 mm 3 mps 771 mmHg 72%
    15:00 -1°C° 0 mm 3 mps 771 mmHg 75%
    16:00 -2°C° 0 mm 3 mps 771 mmHg 77%
    17:00 -2°C° 0 mm 3 mps 771 mmHg 77%
    18:00 -2°C° 0 mm 3 mps 772 mmHg 78%
    19:00 -2°C° 0 mm 3 mps 772 mmHg 78%
    20:00 -2°C° 0 mm 3 mps 772 mmHg 79%
    21:00 -2°C° 0 mm 2 mps 772 mmHg 80%
    22:00 -2°C° 0 mm 2 mps 772 mmHg 81%
    23:00 -3°C° 0 mm 2 mps 772 mmHg 82%

    15 December, Saturday

    Time Temperature Precipitation Wind Pressure Humidity
    00:00 -3°C° 0 mm 2 mps 773 mmHg 83%
    01:00 -3°C° 0 mm 2 mps 773 mmHg 84%
    02:00 -3°C° 0 mm 2 mps 773 mmHg 84%
    03:00 -3°C° 0 mm 2 mps 773 mmHg 85%
    04:00 -3°C° 0 mm 2 mps 773 mmHg 86%
    05:00 -3°C° 0 mm 2 mps 773 mmHg 86%
    06:00 -3°C° 0 mm 2 mps 773 mmHg 86%
    07:00 -3°C° 0 mm 2 mps 773 mmHg 86%
    08:00 0°C° 0 mm 1 mps 774 mmHg 84%
    09:00 0°C° 0 mm 1 mps 774 mmHg 83%
    10:00 0°C° 0 mm 1 mps 775 mmHg 81%
    11:00 +1°C° 0 mm 1 mps 775 mmHg 79%
    12:00 +1°C° 0 mm 1 mps 775 mmHg 77%
    13:00 +2°C° 0 mm 1 mps 775 mmHg 75%
    14:00 +1°C° 0 mm 1 mps 775 mmHg 78%
    15:00 +1°C° 0 mm 1 mps 775 mmHg 81%
    16:00 0°C° 0 mm 1 mps 775 mmHg 84%
    17:00 -2°C° 0 mm 2 mps 775 mmHg 85%
    18:00 -2°C° 0 mm 2 mps 775 mmHg 86%
    19:00 -2°C° 0 mm 2 mps 775 mmHg 87%
    20:00 -2°C° 0 mm 2 mps 775 mmHg 87%
    21:00 -2°C° 0 mm 2 mps 775 mmHg 88%
    22:00 -3°C° 0 mm 2 mps 775 mmHg 88%
    23:00 -3°C° 0 mm 2 mps 775 mmHg 88%

    16 December, Sunday

    Time Temperature Precipitation Wind Pressure Humidity
    00:00 -3°C° 0 mm 2 mps 775 mmHg 87%
    01:00 -3°C° 0 mm 2 mps 775 mmHg 87%
    02:00 -3°C° 0 mm 2 mps 774 mmHg 87%
    03:00 -4°C° 0 mm 3 mps 774 mmHg 87%
    04:00 -4°C° 0 mm 3 mps 774 mmHg 87%
    05:00 -4°C° 0 mm 3 mps 774 mmHg 87%
    06:00 -4°C° 0 mm 3 mps 773 mmHg 88%
    07:00 -4°C° 0 mm 4 mps 773 mmHg 88%
    08:00 -4°C° 0 mm 4 mps 773 mmHg 86%
    09:00 -4°C° 0 mm 5 mps 773 mmHg 84%
    10:00 -4°C° 0 mm 5 mps 773 mmHg 82%
    11:00 -4°C° 0 mm 6 mps 772 mmHg 79%
    12:00 -3°C° 0 mm 6 mps 772 mmHg 76%
    13:00 -3°C° 0 mm 6 mps 771 mmHg 74%
    14:00 -3°C° 0 mm 6 mps 771 mmHg 75%
    15:00 -3°C° 0 mm 6 mps 770 mmHg 76%
    16:00 -3°C° 0 mm 6 mps 770 mmHg 77%
    17:00 -3°C° 0 mm 6 mps 770 mmHg 76%
    18:00 -3°C° 0 mm 7 mps 769 mmHg 76%
    19:00 -3°C° 0 mm 7 mps 769 mmHg 75%
    20:00 -3°C° 0 mm 7 mps 769 mmHg 74%
    21:00 -3°C° 0 mm 7 mps 768 mmHg 72%
    22:00 -3°C° 0 mm 7 mps 768 mmHg 70%
    23:00 -3°C° 0 mm 7 mps 767 mmHg 70%
    Show more